owner,sensor,date,latitude,longitude,vertical_datum,wind_speed,wind_to_direction,wind_speed_of_gust,qcFlag 
LUMCON,ioos:station:LUMCON:101:1,2019-08-01T00:00:00Z,29.2533,-90.6633,1.0,1.4,164.0,1.5,'11111222,11111222,11111222' 
LUMCON,ioos:station:LUMCON:101:1,2019-08-01T00:15:00Z,29.2533,-90.6633,1.0,2.2,126.0,2.3,'11111222,11111222,11111222' 
LUMCON,ioos:station:LUMCON:101:1,2019-08-01T00:30:00Z,29.2533,-90.6633,1.0,1.8,151.0,2.0,'11111222,11111222,11111222' 
LUMCON,ioos:station:LUMCON:101:1,2019-08-01T00:45:00Z,29.2533,-90.6633,1.0,1.9,152.0,2.2,'11111222,11111222,11111222' 
LUMCON,ioos:station:LUMCON:101:1,2019-08-01T01:00:00Z,29.2533,-90.6633,1.0,1.2,151.0,1.3,'11111222,11111222,11111222' 
LUMCON,ioos:station:LUMCON:101:1,2019-08-01T01:15:00Z,29.2533,-90.6633,1.0,1.8,135.0,1.8,'11111222,11111222,11111222' 
LUMCON,ioos:station:LUMCON:101:1,2019-08-01T01:30:00Z,29.2533,-90.6633,1.0,1.7,136.0,1.7,'11111222,11111222,11111222' 
LUMCON,ioos:station:LUMCON:101:1,2019-08-01T01:45:00Z,29.2533,-90.6633,1.0,1.2,172.0,1.3,'11111222,11111222,11111222' 
LUMCON,ioos:station:LUMCON:101:1,2019-08-01T02:00:00Z,29.2533,-90.6633,1.0,0.9,189.0,1.0,'11111222,11111222,11111222' 
LUMCON,ioos:station:LUMCON:101:1,2019-08-01T02:15:00Z,29.2533,-90.6633,1.0,0.9,201.0,0.9,'11111222,11111222,11111222' 
LUMCON,ioos:station:LUMCON:101:1,2019-08-01T02:30:00Z,29.2533,-90.6633,1.0,0.7,252.0,0.7,'11111222,11111222,11111222' 
LUMCON,ioos:station:LUMCON:101:1,2019-08-01T02:45:00Z,29.2533,-90.6633,1.0,0.6,69.0,0.7,'11111222,11111222,11111222' 
LUMCON,ioos:station:LUMCON:101:1,2019-08-01T03:00:00Z,29.2533,-90.6633,1.0,0.2,206.0,0.2,'11111222,11111222,11111222' 
LUMCON,ioos:station:LUMCON:101:1,2019-08-01T03:15:00Z,29.2533,-90.6633,1.0,0.2,261.0,0.2,'11111222,11111222,11111222' 
LUMCON,ioos:station:LUMCON:101:1,2019-08-01T03:30:00Z,29.2533,-90.6633,1.0,0.4,230.0,0.4,'11111222,11111222,11111222' 
LUMCON,ioos:station:LUMCON:101:1,2019-08-01T03:45:00Z,29.2533,-90.6633,1.0,0.4,296.0,0.5,'11111222,11111222,11111222' 
LUMCON,ioos:station:LUMCON:101:1,2019-08-01T04:00:00Z,29.2533,-90.6633,1.0,0.3,298.0,0.4,'11111222,11111222,11111222' 
LUMCON,ioos:station:LUMCON:101:1,2019-08-01T04:15:00Z,29.2533,-90.6633,1.0,0.7,151.0,0.7,'11111222,11111222,11111222' 
LUMCON,ioos:station:LUMCON:101:1,2019-08-01T04:30:00Z,29.2533,-90.6633,1.0,1.5,139.0,1.6,'11111222,11111222,11111222' 
LUMCON,ioos:station:LUMCON:101:1,2019-08-01T04:45:00Z,29.2533,-90.6633,1.0,1.8,161.0,2.0,'11111222,11111222,11111222' 
LUMCON,ioos:station:LUMCON:101:1,2019-08-01T05:00:00Z,29.2533,-90.6633,1.0,1.6,129.0,1.7,'11111222,11111222,11111222' 
LUMCON,ioos:station:LUMCON:101:1,2019-08-01T05:15:00Z,29.2533,-90.6633,1.0,1.2,153.0,1.5,'11111222,11111222,11111222' 
LUMCON,ioos:station:LUMCON:101:1,2019-08-01T05:30:00Z,29.2533,-90.6633,1.0,1.3,151.0,1.4,'11111222,11111222,11111222' 
LUMCON,ioos:station:LUMCON:101:1,2019-08-01T05:45:00Z,29.2533,-90.6633,1.0,0.7,176.0,0.7,'11111222,11111222,11111222' 
LUMCON,ioos:station:LUMCON:101:1,2019-08-01T06:00:00Z,29.2533,-90.6633,1.0,0.4,117.0,0.4,'11111222,11111222,11111222' 
LUMCON,ioos:station:LUMCON:101:1,2019-08-01T06:15:00Z,29.2533,-90.6633,1.0,0.7,274.0,0.7,'11111222,11111222,11111222' 
LUMCON,ioos:station:LUMCON:101:1,2019-08-01T06:30:00Z,29.2533,-90.6633,1.0,1.1,270.0,1.2,'11111222,11111222,11111222' 
LUMCON,ioos:station:LUMCON:101:1,2019-08-01T06:45:00Z,29.2533,-90.6633,1.0,0.9,276.0,1.0,'11111222,11111222,11111222' 
LUMCON,ioos:station:LUMCON:101:1,2019-08-01T07:00:00Z,29.2533,-90.6633,1.0,0.6,298.0,0.7,'11111222,11111222,11111222' 
LUMCON,ioos:station:LUMCON:101:1,2019-08-01T07:15:00Z,29.2533,-90.6633,1.0,0.8,279.0,0.9,'11111222,11111222,11111222' 
LUMCON,ioos:station:LUMCON:101:1,2019-08-01T07:30:00Z,29.2533,-90.6633,1.0,1.5,285.0,1.6,'11111222,11111222,11111222' 
LUMCON,ioos:station:LUMCON:101:1,2019-08-01T07:45:00Z,29.2533,-90.6633,1.0,0.6,307.0,0.6,'11111222,11111222,11111222' 
LUMCON,ioos:station:LUMCON:101:1,2019-08-01T08:00:00Z,29.2533,-90.6633,1.0,1.5,308.0,1.5,'11111222,11111222,11111222' 
LUMCON,ioos:station:LUMCON:101:1,2019-08-01T08:15:00Z,29.2533,-90.6633,1.0,1.4,322.0,1.6,'11111222,11111222,11111222' 
LUMCON,ioos:station:LUMCON:101:1,2019-08-01T08:30:00Z,29.2533,-90.6633,1.0,1.5,327.0,1.5,'11111222,11111222,11111222' 
LUMCON,ioos:station:LUMCON:101:1,2019-08-01T08:45:00Z,29.2533,-90.6633,1.0,1.2,330.0,1.3,'11111222,11111222,11111222' 
LUMCON,ioos:station:LUMCON:101:1,2019-08-01T09:00:00Z,29.2533,-90.6633,1.0,1.2,307.0,1.3,'11111222,11111222,11111222' 
LUMCON,ioos:station:LUMCON:101:1,2019-08-01T09:15:00Z,29.2533,-90.6633,1.0,2.4,296.0,2.4,'11111222,11111222,11111222' 
LUMCON,ioos:station:LUMCON:101:1,2019-08-01T09:30:00Z,29.2533,-90.6633,1.0,2.5,297.0,2.6,'11111222,11111222,11111222' 
LUMCON,ioos:station:LUMCON:101:1,2019-08-01T09:45:00Z,29.2533,-90.6633,1.0,1.7,330.0,1.9,'11111222,11111222,11111222' 
LUMCON,ioos:station:LUMCON:101:1,2019-08-01T10:00:00Z,29.2533,-90.6633,1.0,1.4,329.0,1.5,'11111222,11111222,11111222' 
LUMCON,ioos:station:LUMCON:101:1,2019-08-01T10:15:00Z,29.2533,-90.6633,1.0,1.2,307.0,1.4,'11111222,11111222,11111222' 
LUMCON,ioos:station:LUMCON:101:1,2019-08-01T10:30:00Z,29.2533,-90.6633,1.0,1.3,299.0,1.4,'11111222,11111222,11111222' 
LUMCON,ioos:station:LUMCON:101:1,2019-08-01T10:45:00Z,29.2533,-90.6633,1.0,1.5,322.0,1.7,'11111222,11111222,11111222' 
LUMCON,ioos:station:LUMCON:101:1,2019-08-01T11:00:00Z,29.2533,-90.6633,1.0,1.3,309.0,1.4,'11111222,11111222,11111222' 
LUMCON,ioos:station:LUMCON:101:1,2019-08-01T11:15:00Z,29.2533,-90.6633,1.0,2.3,297.0,2.4,'11111222,11111222,11111222' 
LUMCON,ioos:station:LUMCON:101:1,2019-08-01T11:30:00Z,29.2533,-90.6633,1.0,2.8,301.0,2.9,'11111222,11111222,11111222' 
LUMCON,ioos:station:LUMCON:101:1,2019-08-01T11:45:00Z,29.2533,-90.6633,1.0,3.0,309.0,3.1,'11111222,11111222,11111222' 
LUMCON,ioos:station:LUMCON:101:1,2019-08-01T12:00:00Z,29.2533,-90.6633,1.0,3.4,308.0,3.5,'11111222,11111222,11111222' 
LUMCON,ioos:station:LUMCON:101:1,2019-08-01T12:15:00Z,29.2533,-90.6633,1.0,2.1,337.0,2.2,'11111222,11111222,11111222' 
LUMCON,ioos:station:LUMCON:101:1,2019-08-01T12:30:00Z,29.2533,-90.6633,1.0,2.0,326.0,2.1,'11111222,11111222,11111222' 
LUMCON,ioos:station:LUMCON:101:1,2019-08-01T12:45:00Z,29.2533,-90.6633,1.0,2.3,337.0,2.4,'11111222,11111222,11111222' 
LUMCON,ioos:station:LUMCON:101:1,2019-08-01T13:00:00Z,29.2533,-90.6633,1.0,2.0,349.0,2.5,'11111222,11111222,11111222' 
LUMCON,ioos:station:LUMCON:101:1,2019-08-01T13:15:00Z,29.2533,-90.6633,1.0,1.8,4.0,2.0,'11111222,11111222,11111222' 
LUMCON,ioos:station:LUMCON:101:1,2019-08-01T13:30:00Z,29.2533,-90.6633,1.0,3.1,341.0,3.3,'11111222,11111222,11111222' 
LUMCON,ioos:station:LUMCON:101:1,2019-08-01T13:45:00Z,29.2533,-90.6633,1.0,3.7,327.0,4.1,'11111222,11111222,11111222' 
LUMCON,ioos:station:LUMCON:101:1,2019-08-01T14:00:00Z,29.2533,-90.6633,1.0,2.5,341.0,2.6,'11111222,11111222,11111222' 
LUMCON,ioos:station:LUMCON:101:1,2019-08-01T14:15:00Z,29.2533,-90.6633,1.0,2.0,4.0,2.2,'11111222,11111222,11111222' 
LUMCON,ioos:station:LUMCON:101:1,2019-08-01T14:30:00Z,29.2533,-90.6633,1.0,3.1,355.0,3.3,'11111222,11111222,11111222' 
LUMCON,ioos:station:LUMCON:101:1,2019-08-01T14:45:00Z,29.2533,-90.6633,1.0,2.3,320.0,2.6,'11111222,11111222,11111222' 
LUMCON,ioos:station:LUMCON:101:1,2019-08-01T15:00:00Z,29.2533,-90.6633,1.0,1.7,314.0,1.8,'11111222,11111222,11111222' 
LUMCON,ioos:station:LUMCON:101:1,2019-08-01T15:15:00Z,29.2533,-90.6633,1.0,2.7,311.0,3.0,'11111222,11111222,11111222' 
LUMCON,ioos:station:LUMCON:101:1,2019-08-01T15:30:00Z,29.2533,-90.6633,1.0,2.0,338.0,2.4,'11111222,11111222,11111222' 
LUMCON,ioos:station:LUMCON:101:1,2019-08-01T15:45:00Z,29.2533,-90.6633,1.0,3.3,61.0,3.5,'11111222,11111222,11111222' 
LUMCON,ioos:station:LUMCON:101:1,2019-08-01T16:00:00Z,29.2533,-90.6633,1.0,3.2,36.0,3.3,'11111222,11111222,11111222' 
LUMCON,ioos:station:LUMCON:101:1,2019-08-01T16:15:00Z,29.2533,-90.6633,1.0,2.0,56.0,2.2,'11111222,11111222,11111222' 
LUMCON,ioos:station:LUMCON:101:1,2019-08-01T16:30:00Z,29.2533,-90.6633,1.0,3.1,67.0,3.4,'11111222,11111222,11111222' 
LUMCON,ioos:station:LUMCON:101:1,2019-08-01T16:45:00Z,29.2533,-90.6633,1.0,3.3,41.0,3.5,'11111222,11111222,11111222' 
LUMCON,ioos:station:LUMCON:101:1,2019-08-01T17:00:00Z,29.2533,-90.6633,1.0,0.8,77.0,1.0,'11111222,11111222,11111222' 
LUMCON,ioos:station:LUMCON:101:1,2019-08-01T17:15:00Z,29.2533,-90.6633,1.0,2.2,93.0,2.5,'11111222,11111222,11111222' 
LUMCON,ioos:station:LUMCON:101:1,2019-08-01T17:30:00Z,29.2533,-90.6633,1.0,3.5,112.0,3.6,'11111222,11111222,11111222' 
LUMCON,ioos:station:LUMCON:101:1,2019-08-01T17:45:00Z,29.2533,-90.6633,1.0,1.8,85.0,2.0,'11111222,11111222,11111222' 
LUMCON,ioos:station:LUMCON:101:1,2019-08-01T18:00:00Z,29.2533,-90.6633,1.0,2.5,52.0,2.7,'11111222,11111222,11111222' 
LUMCON,ioos:station:LUMCON:101:1,2019-08-01T18:15:00Z,29.2533,-90.6633,1.0,3.1,93.0,3.4,'11111222,11111222,11111222' 
LUMCON,ioos:station:LUMCON:101:1,2019-08-01T18:30:00Z,29.2533,-90.6633,1.0,2.7,99.0,2.9,'11111222,11111222,11111222' 
LUMCON,ioos:station:LUMCON:101:1,2019-08-01T18:45:00Z,29.2533,-90.6633,1.0,4.2,90.0,4.3,'11111222,11111222,11111222' 
LUMCON,ioos:station:LUMCON:101:1,2019-08-01T19:00:00Z,29.2533,-90.6633,1.0,5.1,113.0,5.3,'11111222,11111222,11111222' 
LUMCON,ioos:station:LUMCON:101:1,2019-08-01T19:15:00Z,29.2533,-90.6633,1.0,3.5,90.0,3.7,'11111222,11111222,11111222' 
LUMCON,ioos:station:LUMCON:101:1,2019-08-01T19:30:00Z,29.2533,-90.6633,1.0,1.9,116.0,2.1,'11111222,11111222,11111222' 
LUMCON,ioos:station:LUMCON:101:1,2019-08-01T19:45:00Z,29.2533,-90.6633,1.0,4.4,110.0,4.8,'11111222,11111222,11111222' 
LUMCON,ioos:station:LUMCON:101:1,2019-08-01T20:00:00Z,29.2533,-90.6633,1.0,2.2,92.0,2.4,'11111222,11111222,11111222' 
LUMCON,ioos:station:LUMCON:101:1,2019-08-01T20:15:00Z,29.2533,-90.6633,1.0,1.5,110.0,2.0,'11111222,11111222,11111222' 
LUMCON,ioos:station:LUMCON:101:1,2019-08-01T20:30:00Z,29.2533,-90.6633,1.0,3.4,123.0,3.6,'11111222,11111222,11111222' 
LUMCON,ioos:station:LUMCON:101:1,2019-08-01T20:45:00Z,29.2533,-90.6633,1.0,1.9,116.0,2.2,'11111222,11111222,11111222' 
LUMCON,ioos:station:LUMCON:101:1,2019-08-01T21:00:00Z,29.2533,-90.6633,1.0,2.7,100.0,2.9,'11111222,11111222,11111222' 
LUMCON,ioos:station:LUMCON:101:1,2019-08-01T21:15:00Z,29.2533,-90.6633,1.0,3.5,131.0,4.1,'11111222,11111222,11111222' 
LUMCON,ioos:station:LUMCON:101:1,2019-08-01T21:30:00Z,29.2533,-90.6633,1.0,3.6,126.0,3.6,'11111222,11111222,11111222' 
LUMCON,ioos:station:LUMCON:101:1,2019-08-01T21:45:00Z,29.2533,-90.6633,1.0,2.1,115.0,2.1,'11111222,11111222,11111222' 
LUMCON,ioos:station:LUMCON:101:1,2019-08-01T22:00:00Z,29.2533,-90.6633,1.0,3.2,137.0,3.6,'11111222,11111222,11111222' 
LUMCON,ioos:station:LUMCON:101:1,2019-08-01T22:15:00Z,29.2533,-90.6633,1.0,2.5,125.0,2.7,'11111222,11111222,11111222' 
LUMCON,ioos:station:LUMCON:101:1,2019-08-01T22:30:00Z,29.2533,-90.6633,1.0,1.9,117.0,2.1,'11111222,11111222,11111222' 
LUMCON,ioos:station:LUMCON:101:1,2019-08-01T22:45:00Z,29.2533,-90.6633,1.0,1.2,53.0,1.3,'11111222,11111222,11111222' 
LUMCON,ioos:station:LUMCON:101:1,2019-08-01T23:00:00Z,29.2533,-90.6633,1.0,2.0,184.0,2.1,'11111222,11111222,11111222' 
LUMCON,ioos:station:LUMCON:101:1,2019-08-01T23:15:00Z,29.2533,-90.6633,1.0,2.0,214.0,2.4,'11111222,11111222,11111222' 
LUMCON,ioos:station:LUMCON:101:1,2019-08-01T23:30:00Z,29.2533,-90.6633,1.0,2.6,176.0,2.7,'11111222,11111222,11111222' 
LUMCON,ioos:station:LUMCON:101:1,2019-08-01T23:45:00Z,29.2533,-90.6633,1.0,1.9,178.0,1.9,'11111222,11111222,11111222' 
LUMCON,ioos:station:LUMCON:101:1,2019-08-02T00:00:00Z,29.2533,-90.6633,1.0,2.9,177.0,3.0,'11111222,11111222,11111222' 
LUMCON,ioos:station:LUMCON:101:1,2019-08-02T00:15:00Z,29.2533,-90.6633,1.0,2.1,169.0,2.2,'11111222,11111222,11111222' 
LUMCON,ioos:station:LUMCON:101:1,2019-08-02T00:30:00Z,29.2533,-90.6633,1.0,2.4,170.0,2.5,'11111222,11111222,11111222' 
LUMCON,ioos:station:LUMCON:101:1,2019-08-02T00:45:00Z,29.2533,-90.6633,1.0,2.1,196.0,2.2,'11111222,11111222,11111222' 
LUMCON,ioos:station:LUMCON:101:1,2019-08-02T01:00:00Z,29.2533,-90.6633,1.0,1.8,224.0,1.9,'11111222,11111222,11111222' 
LUMCON,ioos:station:LUMCON:101:1,2019-08-02T01:15:00Z,29.2533,-90.6633,1.0,2.3,206.0,2.4,'11111222,11111222,11111222' 
LUMCON,ioos:station:LUMCON:101:1,2019-08-02T01:30:00Z,29.2533,-90.6633,1.0,1.6,211.0,1.7,'11111222,11111222,11111222' 
LUMCON,ioos:station:LUMCON:101:1,2019-08-02T01:45:00Z,29.2533,-90.6633,1.0,2.4,218.0,2.4,'11111222,11111222,11111222' 
LUMCON,ioos:station:LUMCON:101:1,2019-08-02T02:00:00Z,29.2533,-90.6633,1.0,2.4,250.0,2.5,'11111222,11111222,11111222' 
LUMCON,ioos:station:LUMCON:101:1,2019-08-02T02:15:00Z,29.2533,-90.6633,1.0,2.5,261.0,2.6,'11111222,11111222,11111222' 
LUMCON,ioos:station:LUMCON:101:1,2019-08-02T02:30:00Z,29.2533,-90.6633,1.0,2.3,248.0,2.4,'11111222,11111222,11111222' 
LUMCON,ioos:station:LUMCON:101:1,2019-08-02T02:45:00Z,29.2533,-90.6633,1.0,2.1,241.0,2.2,'11111222,11111222,11111222' 
LUMCON,ioos:station:LUMCON:101:1,2019-08-02T03:00:00Z,29.2533,-90.6633,1.0,1.0,211.0,1.0,'11111222,11111222,11111222' 
LUMCON,ioos:station:LUMCON:101:1,2019-08-02T03:15:00Z,29.2533,-90.6633,1.0,2.0,219.0,2.1,'11111222,11111222,11111222' 
LUMCON,ioos:station:LUMCON:101:1,2019-08-02T03:30:00Z,29.2533,-90.6633,1.0,1.8,215.0,2.0,'11111222,11111222,11111222' 
LUMCON,ioos:station:LUMCON:101:1,2019-08-02T03:45:00Z,29.2533,-90.6633,1.0,2.1,231.0,2.2,'11111222,11111222,11111222' 
LUMCON,ioos:station:LUMCON:101:1,2019-08-02T04:00:00Z,29.2533,-90.6633,1.0,2.0,208.0,2.1,'11111222,11111222,11111222' 
LUMCON,ioos:station:LUMCON:101:1,2019-08-02T04:15:00Z,29.2533,-90.6633,1.0,2.3,217.0,2.3,'11111222,11111222,11111222' 
LUMCON,ioos:station:LUMCON:101:1,2019-08-02T04:30:00Z,29.2533,-90.6633,1.0,1.9,200.0,1.9,'11111222,11111222,11111222' 
LUMCON,ioos:station:LUMCON:101:1,2019-08-02T04:45:00Z,29.2533,-90.6633,1.0,2.4,248.0,2.6,'11111222,11111222,11111222' 
LUMCON,ioos:station:LUMCON:101:1,2019-08-02T05:00:00Z,29.2533,-90.6633,1.0,2.7,252.0,3.0,'11111222,11111222,11111222' 
LUMCON,ioos:station:LUMCON:101:1,2019-08-02T05:15:00Z,29.2533,-90.6633,1.0,2.1,233.0,2.2,'11111222,11111222,11111222' 
LUMCON,ioos:station:LUMCON:101:1,2019-08-02T05:30:00Z,29.2533,-90.6633,1.0,1.3,262.0,1.4,'11111222,11111222,11111222' 
LUMCON,ioos:station:LUMCON:101:1,2019-08-02T05:45:00Z,29.2533,-90.6633,1.0,1.6,248.0,1.7,'11111222,11111222,11111222' 
LUMCON,ioos:station:LUMCON:101:1,2019-08-02T06:00:00Z,29.2533,-90.6633,1.0,1.5,278.0,1.5,'11111222,11111222,11111222' 
LUMCON,ioos:station:LUMCON:101:1,2019-08-02T06:15:00Z,29.2533,-90.6633,1.0,2.1,266.0,2.2,'11111222,11111222,11111222' 
LUMCON,ioos:station:LUMCON:101:1,2019-08-02T06:30:00Z,29.2533,-90.6633,1.0,1.9,265.0,2.0,'11111222,11111222,11111222' 
LUMCON,ioos:station:LUMCON:101:1,2019-08-02T06:45:00Z,29.2533,-90.6633,1.0,2.1,265.0,2.2,'11111222,11111222,11111222' 
LUMCON,ioos:station:LUMCON:101:1,2019-08-02T07:00:00Z,29.2533,-90.6633,1.0,2.3,254.0,2.4,'11111222,11111222,11111222' 
LUMCON,ioos:station:LUMCON:101:1,2019-08-02T07:15:00Z,29.2533,-90.6633,1.0,1.6,246.0,1.8,'11111222,11111222,11111222' 
LUMCON,ioos:station:LUMCON:101:1,2019-08-02T07:30:00Z,29.2533,-90.6633,1.0,0.9,300.0,1.0,'11111222,11111222,11111222' 
LUMCON,ioos:station:LUMCON:101:1,2019-08-02T07:45:00Z,29.2533,-90.6633,1.0,1.4,248.0,1.5,'11111222,11111222,11111222' 
LUMCON,ioos:station:LUMCON:101:1,2019-08-02T08:00:00Z,29.2533,-90.6633,1.0,2.0,251.0,2.1,'11111222,11111222,11111222' 
LUMCON,ioos:station:LUMCON:101:1,2019-08-02T08:15:00Z,29.2533,-90.6633,1.0,2.0,270.0,2.1,'11111222,11111222,11111222' 
LUMCON,ioos:station:LUMCON:101:1,2019-08-02T08:30:00Z,29.2533,-90.6633,1.0,1.2,287.0,1.3,'11111222,11111222,11111222' 
LUMCON,ioos:station:LUMCON:101:1,2019-08-02T08:45:00Z,29.2533,-90.6633,1.0,1.9,284.0,2.0,'11111222,11111222,11111222' 
LUMCON,ioos:station:LUMCON:101:1,2019-08-02T09:00:00Z,29.2533,-90.6633,1.0,2.8,270.0,3.0,'11111222,11111222,11111222' 
LUMCON,ioos:station:LUMCON:101:1,2019-08-02T09:15:00Z,29.2533,-90.6633,1.0,2.5,273.0,2.6,'11111222,11111222,11111222' 
LUMCON,ioos:station:LUMCON:101:1,2019-08-02T09:30:00Z,29.2533,-90.6633,1.0,2.2,282.0,2.4,'11111222,11111222,11111222' 
LUMCON,ioos:station:LUMCON:101:1,2019-08-02T09:45:00Z,29.2533,-90.6633,1.0,2.9,294.0,3.0,'11111222,11111222,11111222' 
LUMCON,ioos:station:LUMCON:101:1,2019-08-02T10:00:00Z,29.2533,-90.6633,1.0,2.6,296.0,2.7,'11111222,11111222,11111222' 
LUMCON,ioos:station:LUMCON:101:1,2019-08-02T10:15:00Z,29.2533,-90.6633,1.0,1.3,281.0,1.4,'11111222,11111222,11111222' 
LUMCON,ioos:station:LUMCON:101:1,2019-08-02T10:30:00Z,29.2533,-90.6633,1.0,1.0,295.0,1.2,'11111222,11111222,11111222' 
LUMCON,ioos:station:LUMCON:101:1,2019-08-02T10:45:00Z,29.2533,-90.6633,1.0,0.7,280.0,0.8,'11111222,11111222,11111222' 
LUMCON,ioos:station:LUMCON:101:1,2019-08-02T11:00:00Z,29.2533,-90.6633,1.0,1.7,215.0,1.7,'11111222,11111222,11111222' 
LUMCON,ioos:station:LUMCON:101:1,2019-08-02T11:15:00Z,29.2533,-90.6633,1.0,4.4,151.0,5.0,'11111222,11111222,11111222' 
LUMCON,ioos:station:LUMCON:101:1,2019-08-02T11:30:00Z,29.2533,-90.6633,1.0,7.8,162.0,8.4,'11111222,11111222,11111222' 
LUMCON,ioos:station:LUMCON:101:1,2019-08-02T11:45:00Z,29.2533,-90.6633,1.0,7.4,177.0,7.9,'11111222,11111222,11111222' 
LUMCON,ioos:station:LUMCON:101:1,2019-08-02T12:00:00Z,29.2533,-90.6633,1.0,5.3,209.0,5.7,'11111222,11111222,11111222' 
LUMCON,ioos:station:LUMCON:101:1,2019-08-02T12:15:00Z,29.2533,-90.6633,1.0,9.0,212.0,9.4,'11111222,11111222,11111222' 
LUMCON,ioos:station:LUMCON:101:1,2019-08-02T12:30:00Z,29.2533,-90.6633,1.0,6.4,221.0,7.0,'11111222,11111222,11111222' 
LUMCON,ioos:station:LUMCON:101:1,2019-08-02T12:45:00Z,29.2533,-90.6633,1.0,4.4,230.0,5.2,'11111222,11111222,11111222' 
LUMCON,ioos:station:LUMCON:101:1,2019-08-02T13:00:00Z,29.2533,-90.6633,1.0,6.7,249.0,7.6,'11111222,11111222,11111222' 
LUMCON,ioos:station:LUMCON:101:1,2019-08-02T13:15:00Z,29.2533,-90.6633,1.0,4.3,251.0,4.5,'11111222,11111222,11111222' 
LUMCON,ioos:station:LUMCON:101:1,2019-08-02T13:30:00Z,29.2533,-90.6633,1.0,3.2,246.0,3.3,'11111222,11111222,11111222' 
LUMCON,ioos:station:LUMCON:101:1,2019-08-02T13:45:00Z,29.2533,-90.6633,1.0,3.4,283.0,3.5,'11111222,11111222,11111222' 
LUMCON,ioos:station:LUMCON:101:1,2019-08-02T14:00:00Z,29.2533,-90.6633,1.0,0.3,97.0,0.3,'11111222,11111222,11111222' 
LUMCON,ioos:station:LUMCON:101:1,2019-08-02T14:15:00Z,29.2533,-90.6633,1.0,2.5,283.0,2.5,'11111222,11111222,11111222' 
LUMCON,ioos:station:LUMCON:101:1,2019-08-02T14:30:00Z,29.2533,-90.6633,1.0,2.0,272.0,2.2,'11111222,11111222,11111222' 
LUMCON,ioos:station:LUMCON:101:1,2019-08-02T14:45:00Z,29.2533,-90.6633,1.0,1.8,219.0,2.0,'11111222,11111222,11111222' 
LUMCON,ioos:station:LUMCON:101:1,2019-08-02T15:00:00Z,29.2533,-90.6633,1.0,2.2,250.0,2.3,'11111222,11111222,11111222' 
LUMCON,ioos:station:LUMCON:101:1,2019-08-02T15:15:00Z,29.2533,-90.6633,1.0,4.2,232.0,4.5,'11111222,11111222,11111222' 
LUMCON,ioos:station:LUMCON:101:1,2019-08-02T15:30:00Z,29.2533,-90.6633,1.0,3.5,231.0,3.6,'11111222,11111222,11111222' 
LUMCON,ioos:station:LUMCON:101:1,2019-08-02T15:45:00Z,29.2533,-90.6633,1.0,3.0,269.0,3.3,'11111222,11111222,11111222' 
LUMCON,ioos:station:LUMCON:101:1,2019-08-02T16:00:00Z,29.2533,-90.6633,1.0,2.9,308.0,3.1,'11111222,11111222,11111222' 
LUMCON,ioos:station:LUMCON:101:1,2019-08-02T16:15:00Z,29.2533,-90.6633,1.0,3.3,286.0,3.6,'11111222,11111222,11111222' 
LUMCON,ioos:station:LUMCON:101:1,2019-08-02T16:30:00Z,29.2533,-90.6633,1.0,3.8,272.0,4.2,'11111222,11111222,11111222' 
LUMCON,ioos:station:LUMCON:101:1,2019-08-02T16:45:00Z,29.2533,-90.6633,1.0,2.8,281.0,3.1,'11111222,11111222,11111222' 
LUMCON,ioos:station:LUMCON:101:1,2019-08-02T17:00:00Z,29.2533,-90.6633,1.0,2.5,290.0,2.6,'11111222,11111222,11111222' 
LUMCON,ioos:station:LUMCON:101:1,2019-08-02T17:15:00Z,29.2533,-90.6633,1.0,1.8,289.0,1.9,'11111222,11111222,11111222' 
LUMCON,ioos:station:LUMCON:101:1,2019-08-02T17:30:00Z,29.2533,-90.6633,1.0,2.2,293.0,2.4,'11111222,11111222,11111222' 
LUMCON,ioos:station:LUMCON:101:1,2019-08-02T17:45:00Z,29.2533,-90.6633,1.0,2.2,213.0,2.4,'11111222,11111222,11111222' 
LUMCON,ioos:station:LUMCON:101:1,2019-08-02T18:00:00Z,29.2533,-90.6633,1.0,1.6,271.0,1.8,'11111222,11111222,11111222' 
LUMCON,ioos:station:LUMCON:101:1,2019-08-02T18:15:00Z,29.2533,-90.6633,1.0,3.0,199.0,3.0,'11111222,11111222,11111222' 
LUMCON,ioos:station:LUMCON:101:1,2019-08-02T18:30:00Z,29.2533,-90.6633,1.0,3.5,203.0,3.6,'11111222,11111222,11111222' 
LUMCON,ioos:station:LUMCON:101:1,2019-08-02T18:45:00Z,29.2533,-90.6633,1.0,4.2,188.0,4.5,'11111222,11111222,11111222' 
LUMCON,ioos:station:LUMCON:101:1,2019-08-02T19:00:00Z,29.2533,-90.6633,1.0,3.1,184.0,3.3,'11111222,11111222,11111222' 
LUMCON,ioos:station:LUMCON:101:1,2019-08-02T19:15:00Z,29.2533,-90.6633,1.0,4.2,174.0,4.3,'11111222,11111222,11111222' 
LUMCON,ioos:station:LUMCON:101:1,2019-08-02T19:30:00Z,29.2533,-90.6633,1.0,3.9,167.0,4.4,'11111222,11111222,11111222' 
LUMCON,ioos:station:LUMCON:101:1,2019-08-02T19:45:00Z,29.2533,-90.6633,1.0,4.0,167.0,4.4,'11111222,11111222,11111222' 
LUMCON,ioos:station:LUMCON:101:1,2019-08-02T20:00:00Z,29.2533,-90.6633,1.0,3.3,168.0,3.5,'11111222,11111222,11111222' 
LUMCON,ioos:station:LUMCON:101:1,2019-08-02T20:15:00Z,29.2533,-90.6633,1.0,2.1,141.0,2.2,'11111222,11111222,11111222' 
LUMCON,ioos:station:LUMCON:101:1,2019-08-02T20:30:00Z,29.2533,-90.6633,1.0,3.5,165.0,3.7,'11111222,11111222,11111222' 
LUMCON,ioos:station:LUMCON:101:1,2019-08-02T20:45:00Z,29.2533,-90.6633,1.0,4.1,178.0,4.2,'11111222,11111222,11111222' 
LUMCON,ioos:station:LUMCON:101:1,2019-08-02T21:00:00Z,29.2533,-90.6633,1.0,4.2,169.0,4.3,'11111222,11111222,11111222' 
LUMCON,ioos:station:LUMCON:101:1,2019-08-02T21:15:00Z,29.2533,-90.6633,1.0,4.6,175.0,4.7,'11111222,11111222,11111222' 
LUMCON,ioos:station:LUMCON:101:1,2019-08-02T21:30:00Z,29.2533,-90.6633,1.0,3.2,183.0,3.3,'11111222,11111222,11111222' 
LUMCON,ioos:station:LUMCON:101:1,2019-08-02T21:45:00Z,29.2533,-90.6633,1.0,2.7,197.0,3.0,'11111222,11111222,11111222' 
LUMCON,ioos:station:LUMCON:101:1,2019-08-02T22:00:00Z,29.2533,-90.6633,1.0,4.4,320.0,4.6,'11111222,11111222,11111222' 
LUMCON,ioos:station:LUMCON:101:1,2019-08-02T22:15:00Z,29.2533,-90.6633,1.0,3.7,326.0,4.0,'11111222,11111222,11111222' 
LUMCON,ioos:station:LUMCON:101:1,2019-08-02T22:30:00Z,29.2533,-90.6633,1.0,2.7,355.0,3.0,'11111222,11111222,11111222' 
LUMCON,ioos:station:LUMCON:101:1,2019-08-02T22:45:00Z,29.2533,-90.6633,1.0,1.8,338.0,1.9,'11111222,11111222,11111222' 
LUMCON,ioos:station:LUMCON:101:1,2019-08-02T23:00:00Z,29.2533,-90.6633,1.0,1.9,289.0,2.3,'11111222,11111222,11111222' 
LUMCON,ioos:station:LUMCON:101:1,2019-08-02T23:15:00Z,29.2533,-90.6633,1.0,1.9,257.0,2.1,'11111222,11111222,11111222' 
LUMCON,ioos:station:LUMCON:101:1,2019-08-02T23:30:00Z,29.2533,-90.6633,1.0,2.5,281.0,2.5,'11111222,11111222,11111222' 
LUMCON,ioos:station:LUMCON:101:1,2019-08-02T23:45:00Z,29.2533,-90.6633,1.0,0.6,251.0,0.6,'11111222,11111222,11111222' 
LUMCON,ioos:station:LUMCON:101:1,2019-08-03T00:00:00Z,29.2533,-90.6633,1.0,1.4,253.0,1.5,'11111222,11111222,11111222' 
LUMCON,ioos:station:LUMCON:101:1,2019-08-03T00:15:00Z,29.2533,-90.6633,1.0,2.4,303.0,2.5,'11111222,11111222,11111222' 
LUMCON,ioos:station:LUMCON:101:1,2019-08-03T00:30:00Z,29.2533,-90.6633,1.0,3.3,325.0,3.5,'11111222,11111222,11111222' 
LUMCON,ioos:station:LUMCON:101:1,2019-08-03T00:45:00Z,29.2533,-90.6633,1.0,2.5,331.0,2.6,'11111222,11111222,11111222' 
LUMCON,ioos:station:LUMCON:101:1,2019-08-03T01:00:00Z,29.2533,-90.6633,1.0,1.6,350.0,1.6,'11111222,11111222,11111222' 
LUMCON,ioos:station:LUMCON:101:1,2019-08-03T01:15:00Z,29.2533,-90.6633,1.0,2.2,18.0,2.2,'11111222,11111222,11111222' 
LUMCON,ioos:station:LUMCON:101:1,2019-08-03T01:30:00Z,29.2533,-90.6633,1.0,2.3,337.0,2.5,'11111222,11111222,11111222' 
LUMCON,ioos:station:LUMCON:101:1,2019-08-03T01:45:00Z,29.2533,-90.6633,1.0,2.5,337.0,2.6,'11111222,11111222,11111222' 